Location: Camaret
(48.2753°N, 4.5961°W)
Time: 03:56:32
(UTC+00:00)

Cosmos 1953 Rocket - Pass Details

Date: 29 October 2020
Orbit: 605 x 634 km, 82.5° (Epoch: 01 December)

Event Time Altitude Azimuth Distance (km) Brightness Sun altitude
Rises 18:09:40 0° 346° (NNW) 2,906 7.1 -11.5°
Reaches altitude 10° 18:11:55 10° 343° (NNW) 2,000 6.3 -11.9°
Maximum altitude 18:16:15 57° 265° (W) 741 4.3 -12.6°
Drops below altitude 10° 18:20:36 10° 187° (S) 2,000 6.3 -13.3°
Sets 18:22:51 0° 183° (S) 2,906 7.1 -13.7°
